WW1TA Weather Reports


Display with metric or nautical units.
time (UTC)temp
F
wind
direction
speed
MPH
gust
MPH
rain 1hr
in
rain 24hr
in
rain mn
in
humidity
%
barometer
mb
20260506150503 82 14 2.0 8.0 0.00 0.00 0.00 52 1019.2
20260506150000 82 327 3.0 6.0 0.00 0.00 0.00 53 1019.1
20260506145456 82 340 7.0 8.0 0.00 0.00 0.00 53 1019.2
20260506144954 82 311 2.0 3.0 0.00 0.00 0.00 53 1019.2
20260506144450 81 177 1.0 5.0 0.00 0.00 0.00 55 1019.0
20260506143948 81 245 4.0 4.0 0.00 0.00 0.00 55 1018.9
20260506143445 80 237 0.0 3.0 0.00 0.00 0.00 58 1018.9
20260506142944 80 251 2.0 7.0 0.00 0.00 0.00 58 1018.9
20260506142442 80 272 0.0 3.0 0.00 0.00 0.00 60 1019.0
20260506141939 80 267 2.0 4.0 0.00 0.00 0.00 61 1019.0
20260506141437 79 253 3.0 4.0 0.00 0.00 0.00 63 1019.0
20260506140935 79 301 1.0 3.0 0.00 0.00 0.00 61 1019.1
20260506140431 79 293 2.0 7.0 0.00 0.00 0.00 61 1019.0
20260506135928 79 333 4.0 4.0 0.00 0.00 0.00 61 1018.8
20260506135426 79 353 3.0 5.0 0.00 0.00 0.00 63 1018.6
20260506134922 77 318 3.0 6.0 0.00 0.00 0.00 65 1018.5
20260506134418 77 302 3.0 7.0 0.00 0.00 0.00 65 1018.9
20260506133917 76 283 0.0 5.0 0.00 0.00 0.00 67 1018.8
20260506133412 76 296 1.0 5.0 0.00 0.00 0.00 66 1018.9
20260506132908 76 346 4.0 4.0 0.00 0.00 0.00 68 1018.6
20260506132406 75 34 1.0 3.0 0.00 0.00 0.00 70 1018.8
20260506131904 74 70 0.0 5.0 0.00 0.00 0.00 71 1018.6
20260506131359 74 338 4.0 5.0 0.00 0.00 0.00 72 1018.7
20260506130857 73 318 2.0 5.0 0.00 0.00 0.00 74 1018.7
20260506130353 73 58 1.0 3.0 0.00 0.00 0.00 75 1018.7
20260506125851 73 265 1.0 5.0 0.00 0.00 0.00 76 1018.7
20260506125349 72 324 0.0 4.0 0.00 0.00 0.00 77 1018.8
20260506124847 71 281 0.0 2.0 0.00 0.00 0.00 79 1018.6
20260506124344 71 353 3.0 4.0 0.00 0.00 0.00 80 1018.5
20260506123841 71 317 0.0 3.0 0.00 0.00 0.00 81 1018.4
20260506123340 70 302 1.0 2.0 0.00 0.00 0.00 82 1018.4
20260506122837 69 303 2.0 3.0 0.00 0.00 0.00 84 1018.6
20260506122333 69 35 3.0 4.0 0.00 0.00 0.00 86 1018.7
20260506121832 67 279 0.0 4.0 0.00 0.00 0.00 91 1018.5
20260506121328 66 172 0.0 2.0 0.00 0.00 0.00 94 1018.2
20260506120826 66 358 4.0 4.0 0.00 0.00 0.00 97 1018.4
20260506120323 65 6 1.0 2.0 0.00 0.00 0.00 98 1018.4
20260506115820 65 320 0.0 1.0 0.00 0.00 0.00 98 1018.1
20260506115319 64 269 0.0 1.0 0.00 0.00 0.00 98 1018.3
20260506114816 63 60 0.0 0.0 0.00 0.00 0.00 98 1018.4
20260506114314 63 58 1.0 1.0 0.00 0.00 0.00 98 1018.1
20260506113812 62 103 0.0 0.0 0.00 0.00 0.00 98 1018.3
20260506113309 62 89 0.0 0.0 0.00 0.00 0.00 98 1018.3
20260506112806 61 94 0.0 0.0 0.00 0.00 0.00 98 1018.0
20260506112305 61 50 0.0 0.0 0.00 0.00 0.00 98 1017.9
20260506111801 61 130 0.0 0.0 0.00 0.00 0.00 98 1018.1
20260506111259 60 40 0.0 1.0 0.00 0.00 0.00 98 1018.0
20260506110756 60 77 0.0 1.0 0.00 0.00 0.00 98 1018.1
20260506110253 60 186 0.0 0.0 0.00 0.00 0.00 98 1018.1
20260506105749 60 145 0.0 1.0 0.00 0.00 0.00 98 1018.1
20260506105246 60 89 0.0 2.0 0.00 0.00 0.00 98 1018.0
20260506104744 60 129 0.0 0.0 0.00 0.00 0.00 98 1017.9
20260506104241 60 124 0.0 1.0 0.00 0.00 0.00 97 1018.1
20260506103738 60 128 0.0 1.0 0.00 0.00 0.00 98 1017.9
20260506103236 60 199 0.0 1.0 0.00 0.00 0.00 97 1017.9
20260506102733 60 81 0.0 1.0 0.00 0.00 0.00 97 1018.0
20260506102231 60 53 0.0 0.0 0.00 0.00 0.00 97 1017.8
20260506101728 60 129 0.0 0.0 0.00 0.00 0.00 97 1017.7
20260506101224 60 142 0.0 0.0 0.00 0.00 0.00 97 1017.7
20260506100722 60 310 0.0 1.0 0.00 0.00 0.00 97 1017.6
20260506100221 60 38 0.0 0.0 0.00 0.00 0.00 97 1017.7
20260506095718 61 172 0.0 1.0 0.00 0.00 0.00 97 1017.7
20260506095215 61 108 1.0 2.0 0.00 0.00 0.00 97 1017.7
20260506094712 61 131 0.0 0.0 0.00 0.00 0.00 96 1017.7
20260506094210 61 40 0.0 1.0 0.00 0.00 0.00 97 1017.6
20260506093709 61 89 0.0 0.0 0.00 0.00 0.00 96 1017.7
20260506093205 61 269 0.0 0.0 0.00 0.00 0.00 96 1017.8
20260506092703 61 129 0.0 0.0 0.00 0.00 0.00 96 1017.7
20260506092200 61 57 0.0 1.0 0.00 0.00 0.00 96 1017.8
20260506091658 61 142 0.0 0.0 0.00 0.00 0.00 95 1017.8
20260506091155 61 142 0.0 0.0 0.00 0.00 0.00 95 1017.8
20260506090653 61 142 0.0 0.0 0.00 0.00 0.00 95 1017.8
20260506090149 61 50 0.0 0.0 0.00 0.00 0.00 95 1017.8
20260506085646 62 50 0.0 0.0 0.00 0.00 0.00 94 1017.8
20260506085142 62 50 0.0 0.0 0.00 0.00 0.00 94 1017.9
20260506084639 63 37 0.0 1.0 0.00 0.00 0.00 95 1017.8
20260506084136 62 40 0.0 1.0 0.00 0.00 0.00 94 1018.0
20260506083633 62 89 0.0 1.0 0.00 0.00 0.00 94 1018.0
20260506083131 62 50 0.0 0.0 0.00 0.00 0.00 94 1017.9
20260506082627 62 50 0.0 0.0 0.00 0.00 0.00 94 1018.0
20260506082122 62 130 0.0 0.0 0.00 0.00 0.00 93 1018.0
20260506081621 62 130 0.0 0.0 0.00 0.00 0.00 93 1017.8
20260506081118 63 37 0.0 1.0 0.00 0.00 0.00 93 1017.8
20260506080616 63 103 0.0 0.0 0.00 0.00 0.00 93 1017.9
20260506080112 63 44 0.0 2.0 0.00 0.00 0.00 93 1017.7
20260506073056 64 22 0.0 1.0 0.00 0.00 0.00 91 1017.6
20260506072553 64 49 0.0 0.0 0.00 0.00 0.00 90 1017.5
20260506072051 64 37 0.0 1.0 0.00 0.00 0.00 90 1017.5
20260506071548 65 32 0.0 0.0 0.00 0.00 0.00 89 1017.6
20260506071046 64 6 0.0 0.0 0.00 0.00 0.00 90 1017.7
20260506070543 64 13 1.0 2.0 0.00 0.00 0.00 90 1017.7
20260506062017 61 55 0.0 1.0 0.00 0.00 0.00 94 1018.1
20260506061513 61 37 0.0 0.0 0.00 0.00 0.00 94 1017.8
20260506061011 61 103 0.0 1.0 0.00 0.00 0.00 94 1017.9
20260506060509 61 124 0.0 0.0 0.00 0.00 0.00 94 1017.8
20260506050938 61 77 0.0 0.0 0.00 0.00 0.00 91 1018.7
20260506050435 61 77 0.0 0.0 0.00 0.00 0.00 90 1018.7
20260506044925 61 129 0.0 0.0 0.00 0.00 0.00 89 1018.8
20260506044424 62 129 0.0 0.0 0.00 0.00 0.00 89 1019.0
20260506043920 61 62 0.0 1.0 0.00 0.00 0.00 89 1019.1
20260506043418 61 32 0.0 1.0 0.00 0.00 0.00 89 1018.6
20260506042915 61 129 0.0 0.0 0.00 0.00 0.00 88 1018.9
20260506042415 61 89 0.0 0.0 0.00 0.00 0.00 87 1018.9
20260506041913 61 50 0.0 0.0 0.00 0.00 0.00 86 1018.7
20260506041410 62 103 0.0 0.0 0.00 0.00 0.00 86 1018.8
20260506040907 62 103 0.0 0.0 0.00 0.00 0.00 86 1018.8
20260506040404 62 102 0.0 0.0 0.00 0.00 0.00 86 1018.8
20260506035900 62 102 0.0 1.0 0.00 0.00 0.00 85 1019.1
20260506035358 62 50 0.0 0.0 0.00 0.00 0.00 84 1018.9
20260506034854 62 50 0.0 1.0 0.00 0.00 0.00 84 1019.0
20260506034352 62 84 1.0 2.0 0.00 0.00 0.00 85 1018.6
20260506033849 62 147 0.0 1.0 0.00 0.00 0.00 86 1018.6
20260506033346 62 69 0.0 0.0 0.00 0.00 0.00 86 1018.8
20260506032843 62 102 0.0 2.0 0.00 0.00 0.00 86 1018.7
20260506032339 62 57 0.0 1.0 0.00 0.00 0.00 87 1018.6
20260506031836 61 44 0.0 0.0 0.00 0.00 0.00 88 1018.6
20260506031334 62 55 0.0 1.0 0.00 0.00 0.00 87 1018.7
20260506030831 62 106 0.0 1.0 0.00 0.00 0.00 87 1018.7
20260506030329 62 142 0.0 1.0 0.00 0.00 0.00 86 1018.7
20260506025826 62 157 0.0 1.0 0.00 0.00 0.00 86 1018.8
20260506025322 62 189 0.0 1.0 0.00 0.00 0.00 85 1018.9
20260506024819 61 129 0.0 0.0 0.00 0.00 0.00 85 1019.1
20260506024316 62 129 0.0 0.0 0.00 0.00 0.00 85 1019.1
20260506023812 62 76 0.0 0.0 0.00 0.00 0.00 85 1019.3
20260506023309 62 82 0.0 1.0 0.00 0.00 0.00 85 1019.3
20260506022806 62 124 0.0 0.0 0.00 0.00 0.00 85 1019.3
20260506022305 62 89 0.0 0.0 0.00 0.00 0.00 84 1019.3
20260506021802 62 50 0.0 0.0 0.00 0.00 0.00 84 1019.1
20260506021258 62 50 0.0 0.0 0.00 0.00 0.00 84 1019.0
20260506020755 62 129 0.0 0.0 0.00 0.00 0.00 83 1019.0
20260506020253 62 160 0.0 0.0 0.00 0.00 0.00 83 1019.0
20260506015750 62 77 0.0 0.0 0.00 0.00 0.00 82 1019.0
20260506015247 63 72 0.0 1.0 0.00 0.00 0.00 82 1018.7
20260506014744 63 142 0.0 0.0 0.00 0.00 0.00 82 1018.6
20260506014241 63 130 0.0 0.0 0.00 0.00 0.00 81 1018.7
20260506013738 63 130 0.0 0.0 0.00 0.00 0.00 80 1018.7
20260506013235 64 130 0.0 0.0 0.00 0.00 0.00 80 1018.6
20260506012731 64 110 0.0 0.0 0.00 0.00 0.00 79 1018.7
20260506012228 64 50 0.0 0.0 0.00 0.00 0.00 78 1018.6
20260506011726 64 89 0.0 0.0 0.00 0.00 0.00 78 1018.8
20260506011222 65 66 0.0 1.0 0.00 0.00 0.00 77 1019.0
20260506010720 65 89 0.0 1.0 0.00 0.00 0.00 76 1018.8
20260506010217 65 122 0.0 2.0 0.00 0.00 0.00 75 1018.4
20260506005714 65 142 0.0 0.0 0.00 0.00 0.00 75 1018.5
20260506005211 66 113 0.0 0.0 0.00 0.00 0.00 74 1018.5
20260506004707 66 142 0.0 1.0 0.00 0.00 0.00 73 1018.5
20260506004205 66 82 0.0 0.0 0.00 0.00 0.00 73 1018.5
20260506003700 67 89 0.0 1.0 0.00 0.00 0.00 72 1018.7
20260506003157 67 224 0.0 0.0 0.00 0.00 0.00 71 1018.6
20260506002653 67 322 0.0 0.0 0.00 0.00 0.00 70 1018.8
20260506002149 68 320 0.0 0.0 0.00 0.00 0.00 69 1018.7
20260506001645 68 309 0.0 1.0 0.00 0.00 0.00 68 1018.8
20260506001143 69 307 0.0 1.0 0.00 0.00 0.00 68 1018.7
20260506000640 69 37 0.0 1.0 0.00 0.00 0.00 67 1018.7
20260506000137 69 345 0.0 2.0 0.00 0.00 0.00 66 1018.6
20260505235635 70 230 0.0 1.0 0.00 0.00 0.00 64 1018.7
20260505235132 70 237 0.0 3.0 0.00 0.00 0.00 63 1018.5
20260505234629 71 224 0.0 3.0 0.00 0.00 0.00 62 1018.6
20260505234125 72 304 0.0 2.0 0.00 0.00 0.00 61 1018.7
20260505233623 73 220 0.0 2.0 0.00 0.00 0.00 59 1018.4
20260505233120 73 224 0.0 2.0 0.00 0.00 0.00 59 1018.5
20260505232618 73 154 0.0 2.0 0.00 0.00 0.00 57 1018.4
20260505232115 73 212 0.0 2.0 0.00 0.00 0.00 58 1018.4
20260505231612 72 240 4.0 4.0 0.00 0.00 0.00 57 1018.4
20260505231111 73 49 0.0 3.0 0.00 0.00 0.00 58 1018.6
20260505230608 74 255 2.0 3.0 0.00 0.00 0.00 57 1018.7
20260505230104 74 218 0.0 3.0 0.00 0.00 0.00 57 1018.7
20260505225601 74 293 0.0 2.0 0.00 0.00 0.00 56 1018.6
20260505225057 74 264 1.0 3.0 0.00 0.00 0.00 55 1018.6
20260505224554 75 295 1.0 3.0 0.00 0.00 0.00 55 1018.5
20260505224051 74 237 2.0 4.0 0.00 0.00 0.00 54 1018.5
20260505223548 75 265 2.0 3.0 0.00 0.00 0.00 53 1018.7
20260505223044 76 57 0.0 2.0 0.00 0.00 0.00 53 1018.6
20260505222541 75 280 1.0 3.0 0.00 0.00 0.00 53 1018.8
20260505222037 76 293 2.0 4.0 0.00 0.00 0.00 53 1018.9
20260505221534 74 214 2.0 3.0 0.00 0.00 0.00 54 1018.6
20260505221031 74 260 1.0 3.0 0.00 0.00 0.00 54 1018.7
20260505220528 77 274 1.0 3.0 0.00 0.00 0.00 51 1018.8
20260505220026 75 30 0.0 3.0 0.00 0.00 0.00 54 1019.0
20260505215524 74 181 0.0 1.0 0.00 0.00 0.00 57 1018.9
20260505215021 74 227 2.0 3.0 0.00 0.00 0.00 56 1018.7
20260505214519 75 260 2.0 4.0 0.00 0.00 0.00 56 1018.8
20260505214016 75 262 1.0 3.0 0.00 0.00 0.00 55 1019.1
20260505213514 75 299 0.0 3.0 0.00 0.00 0.00 54 1019.0
20260505213010 76 209 3.0 4.0 0.00 0.00 0.00 53 1019.0
20260505212506 77 255 0.0 5.0 0.00 0.00 0.00 52 1018.8
20260505212003 77 182 0.0 3.0 0.00 0.00 0.00 49 1019.0
20260505211501 77 246 3.0 3.0 0.00 0.00 0.00 51 1018.7
20260505210957 78 253 1.0 4.0 0.00 0.00 0.00 49 1018.7
20260505210454 77 11 0.0 2.0 0.00 0.00 0.00 52 1018.8
20260505205950 77 269 0.0 3.0 0.00 0.00 0.00 53 1018.9
20260505205449 78 296 2.0 3.0 0.00 0.00 0.00 50 1019.0
20260505204945 77 312 0.0 3.0 0.00 0.00 0.00 52 1018.7
20260505204444 77 31 0.0 5.0 0.00 0.00 0.00 52 1018.7
20260505203941 78 303 0.0 2.0 0.00 0.00 0.00 50 1018.9
20260505203437 78 278 2.0 3.0 0.00 0.00 0.00 50 1018.9
20260505202933 79 249 2.0 3.0 0.00 0.00 0.00 50 1018.7
20260505202430 76 252 4.0 5.0 0.00 0.00 0.00 51 1019.0
20260505201926 77 248 3.0 5.0 0.00 0.00 0.00 51 1018.8
20260505201423 78 224 1.0 3.0 0.00 0.00 0.00 52 1018.9
20260505200921 78 301 0.0 6.0 0.00 0.00 0.00 50 1019.1
20260505200418 78 144 2.0 3.0 0.00 0.00 0.00 51 1019.4
20260505195914 80 283 2.0 3.0 0.00 0.00 0.00 48 1019.3
20260505195411 79 113 3.0 3.0 0.00 0.00 0.00 49 1019.3
20260505194908 78 259 3.0 6.0 0.00 0.00 0.00 48 1019.3
20260505194406 80 91 1.0 3.0 0.00 0.00 0.00 48 1019.6
20260505193905 80 91 1.0 3.0 0.00 0.00 0.00 47 1019.7
20260505193404 79 26 0.0 2.0 0.00 0.00 0.00 47 1019.7
20260505192901 78 281 3.0 5.0 0.00 0.00 0.00 50 1020.0
20260505192359 76 239 2.0 5.0 0.00 0.00 0.00 52 1020.0
20260505191856 77 262 3.0 6.0 0.00 0.00 0.00 51 1020.0
20260505191355 78 335 2.0 4.0 0.00 0.00 0.00 49 1020.1
20260505190852 78 273 2.0 4.0 0.00 0.00 0.00 50 1020.1
20260505190347 78 291 0.0 3.0 0.00 0.00 0.00 50 1020.0
20260505185842 78 261 0.0 4.0 0.00 0.00 0.00 50 1020.0
20260505185339 79 254 2.0 11.0 0.00 0.00 0.00 48 1020.1
20260505184835 78 277 0.0 8.0 0.00 0.00 0.00 48 1020.0
20260505184332 77 256 4.0 5.0 0.00 0.00 0.00 49 1020.2
20260505183829 77 226 2.0 5.0 0.00 0.00 0.00 49 1020.0
20260505183326 79 211 0.0 5.0 0.00 0.00 0.00 48 1019.7
20260505182823 80 243 3.0 4.0 0.00 0.00 0.00 47 1019.9
20260505182320 80 207 0.0 3.0 0.00 0.00 0.00 46 1020.0
20260505181816 82 11 3.0 7.0 0.00 0.00 0.00 44 1020.0
20260505181314 82 236 1.0 3.0 0.00 0.00 0.00 45 1020.0
20260505180810 81 247 0.0 3.0 0.00 0.00 0.00 45 1020.0
20260505180307 80 188 1.0 4.0 0.00 0.00 0.00 46 1020.2
20260505175803 79 283 1.0 4.0 0.00 0.00 0.00 48 1020.2
20260505175300 80 341 2.0 5.0 0.00 0.00 0.00 48 1019.8
20260505174757 80 248 2.0 4.0 0.00 0.00 0.00 48 1019.9
20260505174254 79 40 1.0 5.0 0.00 0.00 0.00 51 1019.9
20260505173750 78 256 5.0 5.0 0.00 0.00 0.00 49 1019.9
20260505173247 79 274 1.0 2.0 0.00 0.00 0.00 48 1020.2
20260505172744 78 248 5.0 5.0 0.00 0.00 0.00 48 1020.4
20260505172241 78 239 4.0 5.0 0.00 0.00 0.00 48 1020.2
20260505171741 79 221 3.0 4.0 0.00 0.00 0.00 47 1020.2
20260505171238 79 357 1.0 4.0 0.00 0.00 0.00 49 1020.2
20260505170735 79 286 3.0 4.0 0.00 0.00 0.00 46 1020.4
20260505170232 78 234 1.0 7.0 0.00 0.00 0.00 52 1020.4
20260505165727 79 233 2.0 5.0 0.00 0.00 0.00 46 1020.4
20260505165223 78 274 3.0 5.0 0.00 0.00 0.00 50 1020.4
20260505164718 79 214 0.0 4.0 0.00 0.00 0.00 49 1020.5
20260505164216 79 350 0.0 3.0 0.00 0.00 0.00 51 1020.6
20260505163714 78 251 3.0 6.0 0.00 0.00 0.00 51 1020.6
20260505163212 78 257 3.0 6.0 0.00 0.00 0.00 50 1020.6
20260505162709 78 264 3.0 4.0 0.00 0.00 0.00 50 1020.6
20260505162206 78 258 2.0 4.0 0.00 0.00 0.00 50 1020.8
20260505161703 77 264 1.0 5.0 0.00 0.00 0.00 51 1020.8
20260505161201 78 233 3.0 4.0 0.00 0.00 0.00 49 1020.9
20260505160658 76 241 2.0 5.0 0.00 0.00 0.00 53 1020.7
20260505160156 78 264 3.0 4.0 0.00 0.00 0.00 50 1020.6
20260505153135 78 289 4.0 4.0 0.00 0.00 0.00 51 1020.7
20260505152631 78 201 0.0 3.0 0.00 0.00 0.00 51 1020.6
20260505152127 78 245 3.0 4.0 0.00 0.00 0.00 50 1020.7
20260505151623 79 249 3.0 4.0 0.00 0.00 0.00 48 1020.7
20260505151120 78 230 0.0 3.0 0.00 0.00 0.00 51 1020.6